Regional Weather Roundup
Issued by NWS

Home | Current Version | Previous Version | Graphics & Text | Print | Product List | Glossary Off
Versions: 1 2 3 4 5 6 7 8 9 10 11 12 13 14 15 16 17 18 19 20 21 22 23 24 25 26 27 28 29 30 31 32 33 34 35 36 37 38 39 40 41 42 43 44 45 46 47 48 49 50

000
ASUS43 KLSX 201959
RWRMO

WEATHER SUMMARY FOR MISSOURI
NATIONAL WEATHER SERVICE SPRINGFIELD MO
300 PM CDT SUN APR 20 2014

NOTE: "FAIR" INDICATES FEW OR NO CLOUDS BELOW 12,000 FEET WITH NO
       SIGNIFICANT WEATHER AND/OR OBSTRUCTIONS TO VISIBILITY.
       CURRENT SKY AND/OR WEATHER CONDITIONS ARE NOT AVAILABLE FOR
       CHILLICOTHE AND FARMINGTON.

MOZ001>031-035>038-043-044-053-054-202100-
...NORTHERN AND WESTERN MISSOURI...

CITY           SKY/WX    TMP DP  RH WIND       PRES   REMARKS
KANSAS CTY INT CLOUDY    75  53  46 S16       30.04F
KANSAS C DTWN  CLOUDY    77  53  43 S17       30.04F
LEE`S SUMMIT   CLOUDY    75  51  43 S10       30.06F
ST JOSEPH      PTSUNNY   80  53  39 SW16G24   30.01F
KIRKSVILLE     MOSUNNY   79  48  33 S12G23    30.06F

$$
MOZ066>068-077>081-088>096-101>105-202100-
...SOUTHWEST MISSOURI...

CITY           SKY/WX    TMP DP  RH WIND       PRES   REMARKS
SPRINGFIELD    PTSUNNY   75  51  43 SW10      30.12S
JOPLIN         CLOUDY    73  51  46 SW9       30.10F

$$
MOZ032>034-039>042-045>050-055>058-069>072-202100-
...CENTRAL MISSOURI...

CITY           SKY/WX    TMP DP  RH WIND       PRES   REMARKS
COLUMBIA       MOSUNNY   79  49  34 S9G18     30.08F
JEFFERSON CITY MOSUNNY   79  48  33 S12       30.07F
ROLLA          SUNNY     78  47  33 S9        30.08F
SEDALIA        MOSUNNY   79  50  36 SW14G24   30.08F
OSAGE BEACH    MOSUNNY   79  46  31 S10G18    30.10F

$$
MOZ051-052-059>065-202100-
...EAST CENTRAL MISSOURI...

CITY           SKY/WX    TMP DP  RH WIND       PRES   REMARKS
ST LOUIS INTL  PTSUNNY   81  42  25 S12       30.10F
SPIRIT OF STL  MOSUNNY   81  38  21 SE8       30.08F
ST CHARLES     SUNNY     80  42  25 S8        30.08F

$$
MOZ072>076-082>087-097>100-106>115-202100-
...SOUTH CENTRAL AND SOUTHEAST MISSOURI...

CITY           SKY/WX    TMP DP  RH WIND       PRES   REMARKS
CAPE GIRARDEAU MOSUNNY   77  45  32 S9        30.13F
FARMINGTON     SUNNY     79  43  27 SE9       30.14F
POPLAR BLUFF   PTSUNNY   79  44  28 SW8       30.11F
WEST PLAINS    SUNNY     76  47  35 SW6       30.13F

$$



USA.gov is the U.S. government's official web portal to all federal, state and local government web resources and services.